Theta_e
337 341 346 344 343 344 345 345 345 345 344 343 342 341 340 340 340 339 339 339 341 340 342 340 338 338 336 335 334 334 333 332 333 333 332 333 336 337 338 337 337 331 336
339 341 345 346 342 344 345 345 344 345 342 342 341 339 338 339 340 338 337 338 337 338 341 339 338 337 335 334 333 333 333 331 330 330 333 335 333 333 335 335 334 330 332
340 342 343 344 342 344 345 344 344 344 342 341 339 337 337 338 341 339 339 337 337 337 340 339 337 336 336 334 333 332 330 329 329 331 333 327 326 332 331 330 329 331 332
340 341 340 342 343 343 343 342 342 341 342 341 339 337 339 339 340 340 337 336 335 336 337 339 337 336 335 335 334 332 331 329 330 333 324 324 327 332 331 330 327 329 329
338 341 340 342 343 341 341 340 340 340 343 341 338 337 337 339 338 336 336 334 332 334 339 337 337 336 335 335 334 333 331 330 331 328 319 318 321 330 332 330 328 328 328
339 340 341 343 342 340 340 339 339 339 341 340 338 338 337 337 336 335 334 334 333 331 335 340 338 337 336 334 332 331 328 326 329 316 316 322 324 330 331 332 328 327 328
338 339 341 343 343 341 340 339 340 340 339 338 337 337 338 337 337 335 334 333 333 332 332 331 330 330 330 329 328 328 327 327 323 318 318 317 319 325 327 330 333 331 331
338 340 340 338 340 341 342 340 340 338 337 337 338 337 337 340 338 336 334 333 332 332 332 331 330 330 330 329 328 327 328 327 324 321 321 321 329 330 330 330 331 333 334
338 339 339 339 338 336 339 339 340 339 338 337 338 338 338 338 339 337 337 336 335 333 332 333 332 331 331 331 331 331 328 327 323 323 324 323 331 331 332 333 332 332 333
336 337 337 338 339 338 337 334 335 336 335 335 336 334 331 332 332 331 330 334 334 335 335 334 337 336 335 334 334 331 328 327 323 324 325 324 330 331 334 335 335 335 335
334 335 337 337 336 339 339 333 331 332 332 331 330 329 328 330 332 329 328 330 332 332 332 333 334 335 334 332 332 330 327 325 326 324 326 329 330 332 334 335 335 335 336
330 332 334 334 334 335 338 335 337 336 334 332 332 330 329 332 330 328 324 326 328 328 331 333 333 331 327 328 327 328 328 328 326 326 326 330 330 332 334 335 336 336 334
330 331 333 334 334 334 332 336 334 337 335 334 333 332 332 331 331 331 330 325 326 322 324 330 329 326 325 326 324 324 325 327 326 326 325 328 328 331 334 334 335 334 334
327 330 332 333 333 333 334 333 335 332 333 332 334 333 331 330 331 328 325 325 326 325 326 326 325 325 325 325 325 325 324 324 327 326 325 323 327 331 334 335 335 334 333
325 328 330 331 332 334 333 333 331 332 334 334 335 336 332 330 328 329 331 328 327 327 326 325 325 325 324 325 325 324 324 324 324 326 326 320 326 329 331 332 332 332 332
324 326 328 330 331 331 331 331 330 331 331 334 334 334 333 332 330 330 329 330 328 329 327 326 326 326 325 326 327 327 326 326 326 326 327 319 321 327 331 332 331 331 330
324 322 321 321 322 323 325 328 330 331 332 331 330 325 326 326 328 331 332 329 330 330 329 329 328 328 326 327 326 327 326 325 325 324 324 316 313 316 321 325 326 327 327
319 318 314 315 316 317 319 321 323 327 328 326 323 320 320 321 322 326 327 327 328 329 329 327 325 324 323 323 322 322 323 324 324 322 318 313 310 307 311 314 316 319 320
316 313 312 313 312 314 317 321 321 321 321 320 317 315 316 316 318 322 323 324 326 327 328 322 322 322 320 320 320 319 320 320 320 314 308 305 305 304 302 305 306 308 312
310 311 310 310 311 313 317 318 318 317 314 312 309 308 309 309 313 316 320 319 320 321 316 313 313 316 317 318 318 316 315 317 316 311 307 302 300 300 299 299 299 299 303
308 307 308 308 309 310 315 315 315 314 311 306 303 303 305 308 308 309 311 310 310 311 310 311 310 311 313 313 312 312 310 309 307 308 304 300 297 296 295 294 294 293 293
305 304 305 306 307 309 313 315 314 309 305 303 302 300 301 303 304 305 304 305 304 305 305 303 303 306 311 310 307 308 304 302 304 304 302 297 292 292 291 291 291 290 289
302 302 303 304 306 308 313 313 310 309 306 304 301 298 299 301 301 302 301 301 301 301 299 298 299 300 301 305 306 305 301 301 301 301 301 298 293 290 289 289 289 289 288
300 300 301 302 303 306 309 312 310 310 306 302 299 298 298 298 298 298 298 298 298 298 296 297 298 297 298 296 301 302 304 302 298 293 297 296 293 291 289 289 287 287 287
298 298 298 299 301 303 306 311 308 303 301 300 298 297 296 295 295 296 296 295 295 295 295 295 294 294 295 294 293 294 296 299 298 297 293 292 293 290 289 287 287 286 286
295 296 297 297 298 301 303 305 305 301 299 298 297 295 294 293 292 292 294 294 293 293 293 293 293 292 292 291 291 290 289 289 289 290 292 293 291 290 289 287 285 285 284
Wind_Speed
11 9 10 11 9 9 10 13 13 12 13 12 12 12 12 12 13 13 14 13 11 13 15 13 13 14 14 14 14 14 14 12 10 10 11 13 12 13 13 18 13 9 12
14 10 8 10 10 9 10 11 11 10 11 11 11 11 11 11 12 12 13 12 12 11 13 12 12 13 14 14 14 13 12 10 7 5 4 10 12 10 11 13 13 9 10
15 11 9 9 9 9 11 10 8 9 9 10 11 11 11 11 11 11 13 12 11 10 10 12 11 11 12 12 12 12 11 9 8 9 6 4 7 9 10 9 9 9 10
14 11 10 9 8 9 9 8 7 7 7 10 10 10 11 10 10 13 11 11 10 8 8 9 9 10 11 11 10 10 9 9 10 11 4 6 6 8 8 8 7 7 7
13 11 11 10 8 8 7 7 6 5 8 9 8 9 9 11 10 10 10 11 10 9 8 6 8 8 8 9 8 8 8 9 11 9 5 4 5 7 6 6 7 6 6
15 13 12 10 9 8 6 6 6 7 7 7 6 6 6 7 8 9 9 9 9 9 10 10 8 8 9 7 7 7 8 10 13 4 4 1 5 7 7 7 1 3 3
15 13 10 11 9 8 5 5 5 5 5 5 4 3 5 4 7 7 7 7 7 7 7 7 7 7 6 6 6 6 7 9 7 6 2 4 5 6 6 7 9 4 5
13 12 10 10 10 9 7 5 4 4 3 3 3 3 1 6 8 5 4 4 3 4 4 5 5 5 5 4 4 4 5 7 8 6 4 5 7 5 6 7 7 9 9
13 11 11 8 9 8 8 7 6 4 3 3 3 5 8 6 6 4 2 1 1 1 1 1 1 2 3 3 3 3 5 7 6 5 2 4 4 5 6 7 7 8 10
8 9 7 8 8 7 6 8 6 5 3 3 3 3 3 2 4 3 3 2 1 2 2 3 3 4 5 6 6 6 7 9 6 6 2 3 4 5 7 8 9 10 11
6 7 10 9 7 7 8 7 6 5 4 4 4 5 4 5 6 6 6 4 1 2 4 4 4 4 6 8 11 9 7 4 6 2 2 4 3 5 7 9 9 11 11
7 7 7 7 7 7 7 8 7 7 6 7 7 7 5 2 4 2 3 4 5 7 7 8 8 9 6 4 3 6 3 5 2 1 2 1 3 6 9 10 12 12 11
9 6 7 7 7 6 5 5 4 4 3 4 4 5 3 2 3 3 2 2 4 6 4 6 5 4 5 4 4 3 4 4 2 2 4 5 4 7 8 10 10 11 12
9 9 7 8 7 6 4 3 4 4 4 3 4 5 3 1 3 3 3 4 3 3 4 3 2 3 4 4 4 5 6 4 1 1 3 6 8 9 9 11 13 14 14
8 8 8 7 7 6 4 3 2 2 4 4 3 4 2 2 2 2 3 2 3 3 3 3 3 3 4 5 5 6 6 6 5 1 2 10 10 9 9 10 12 14 13
7 8 7 4 2 1 3 4 0 1 1 3 4 3 2 3 3 3 3 4 3 3 3 2 3 4 4 4 5 6 6 5 4 0 6 9 18 19 18 18 18 19 18
5 8 8 7 6 4 3 3 2 2 4 6 6 9 8 7 7 5 4 4 4 5 6 4 4 4 4 4 5 6 3 4 6 6 6 7 11 22 22 22 21 22 21
9 9 8 4 5 6 6 5 5 5 5 4 6 5 7 6 6 5 4 4 4 4 4 3 3 3 3 3 3 4 4 5 7 9 10 8 8 7 17 23 23 21 21
9 9 7 5 6 5 3 5 5 6 5 5 5 5 5 5 5 4 3 3 4 3 3 4 4 3 3 4 4 4 4 5 7 10 11 11 10 7 6 18 22 22 21
8 8 7 4 5 4 3 3 4 5 5 6 5 5 6 4 6 4 3 5 6 5 6 4 5 4 3 1 3 4 6 5 9 8 10 9 8 8 8 8 6 11 21
5 5 6 6 3 2 2 3 3 4 5 5 4 6 6 7 8 8 6 6 6 4 5 6 4 5 3 4 2 4 6 7 8 8 8 8 9 9 10 9 7 6 8
5 5 5 5 5 3 3 3 4 5 5 5 4 5 6 7 7 6 6 5 6 5 6 6 5 4 2 4 2 1 3 3 5 6 7 8 8 7 8 9 8 9 7
7 6 6 5 5 4 3 4 5 6 4 3 4 4 5 6 6 7 7 5 6 5 5 5 6 7 4 3 5 1 3 3 4 3 5 7 8 5 5 7 8 8 9
7 6 6 5 6 3 3 5 6 3 4 3 4 4 4 6 6 6 6 6 6 4 6 5 5 4 4 4 3 5 3 3 2 2 2 6 6 7 6 6 6 7 7
7 5 5 5 6 4 3 5 5 7 5 4 4 6 6 5 6 6 6 6 6 4 5 6 6 6 4 3 4 3 3 2 3 1 3 3 6 4 5 5 5 5 6
6 5 4 6 5 5 5 5 8 8 6 5 3 4 4 4 4 6 6 5 5 5 5 5 6 7 5 5 4 4 4 2 2 2 2 4 7 3 4 5 5 4 5
Wind_Direction
112 127 131 128 120 111 101 101 101 97 95 88 82 77 74 73 71 70 67 61 62 70 74 69 69 67 65 68 67 66 62 59 60 59 68 68 54 49 41 38 57 42 43
122 128 131 124 120 113 113 107 103 99 97 92 83 77 76 78 80 77 77 69 68 62 84 78 73 71 67 66 63 61 56 44 33 41 49 90 64 53 43 39 36 31 37
116 122 126 117 118 112 121 113 107 107 106 100 89 81 81 81 81 75 74 64 58 64 67 88 81 76 72 68 63 59 50 31 2 340 315 237 92 57 43 36 32 31 32
128 135 126 118 120 122 116 114 109 105 121 107 94 90 87 82 79 78 68 59 57 59 69 86 84 78 73 66 60 53 39 12 344 334 315 24 65 70 46 33 37 26 17
123 118 121 123 122 122 118 114 108 92 143 115 101 97 92 82 83 75 69 64 60 54 32 104 89 83 80 68 53 38 23 357 333 326 53 46 9 46 33 36 26 24 7
120 114 124 126 124 119 120 118 108 94 95 100 103 103 102 92 86 79 75 71 60 57 52 69 66 61 56 47 34 27 13 350 329 334 22 69 56 33 357 353 332 330 328
115 119 127 131 127 120 118 112 106 96 89 88 85 64 51 158 118 96 87 82 72 61 57 60 62 60 51 41 30 17 3 343 319 311 41 81 70 28 349 341 336 303 299
127 129 134 144 144 145 144 133 116 105 101 90 68 14 40 71 117 106 98 87 72 69 54 50 50 42 34 28 15 1 345 330 318 313 21 85 67 22 353 343 333 331 334
128 134 140 158 154 155 157 159 154 136 117 100 94 44 81 86 93 96 80 61 357 295 337 303 352 343 335 329 316 301 300 298 295 294 294 111 63 10 342 334 327 319 315
129 139 149 147 157 164 159 158 150 151 149 132 129 113 109 149 162 173 209 203 343 346 331 341 285 275 279 282 277 275 275 281 264 272 52 93 41 341 331 326 322 316 312
146 149 153 161 156 171 163 154 153 170 172 174 184 193 211 237 192 194 147 153 230 283 279 272 271 279 275 271 256 249 270 270 273 335 101 94 41 340 330 323 319 313 318
157 160 153 153 165 167 149 149 190 174 195 194 193 180 211 236 72 65 161 184 224 238 247 249 248 250 259 253 283 224 225 255 281 327 151 82 32 333 323 330 334 346 347
162 159 151 155 153 159 158 168 171 179 192 198 192 168 194 143 168 186 170 216 227 215 239 222 225 235 241 249 258 223 246 259 242 226 74 76 21 339 330 327 336 350 347
156 153 164 161 157 174 155 196 188 157 171 183 172 176 176 209 195 190 197 216 226 200 241 243 250 253 270 282 292 290 285 293 328 23 95 50 15 1 350 348 1 355 352
150 147 162 164 163 167 178 205 208 131 150 190 179 168 186 203 251 250 310 285 225 254 226 244 250 256 254 263 260 257 258 270 256 234 67 46 35 33 19 19 14 14 23
147 141 119 137 130 86 157 180 78 57 257 161 71 103 71 313 343 318 268 277 280 269 277 225 243 256 249 239 255 253 259 269 293 65 93 67 59 53 53 54 52 55 56
125 99 88 70 45 34 32 32 58 17 53 55 63 47 40 29 8 360 2 354 346 326 309 291 280 280 276 270 264 260 238 67 73 68 101 92 66 55 57 57 55 54 54
111 103 83 86 74 53 51 54 54 39 58 74 57 49 38 24 14 1 3 2 338 343 329 345 338 309 330 336 350 347 39 78 83 72 66 69 66 64 58 60 57 54 54
110 109 116 111 91 97 77 91 89 90 77 64 69 55 38 31 8 10 1 328 318 342 319 13 352 9 25 360 352 337 82 77 83 83 76 68 66 70 80 69 64 54 50
65 98 119 122 132 139 130 109 101 91 75 63 44 37 37 17 12 356 357 21 359 22 20 8 359 342 330 316 346 27 63 84 85 94 98 90 80 71 63 63 61 59 51
112 136 150 125 96 143 151 150 129 119 89 70 62 30 40 31 15 21 13 19 12 17 28 11 342 341 339 18 1 75 67 69 73 95 96 91 80 68 63 60 56 53 48
149 117 93 89 74 38 40 40 64 95 76 99 94 51 39 42 25 31 20 18 18 11 32 20 11 336 339 32 21 278 161 78 54 75 94 88 79 71 65 57 59 68 52
138 135 112 98 88 69 87 82 76 83 102 109 90 70 37 49 37 28 25 25 20 30 29 18 10 16 345 7 44 46 346 89 130 19 58 103 96 84 79 69 53 59 67
128 106 102 95 93 72 1 136 156 142 119 77 96 98 78 53 44 34 34 33 33 39 34 17 18 18 18 23 344 4 21 77 74 124 70 88 93 89 77 74 66 55 74
108 101 101 99 87 68 49 91 93 89 102 114 109 101 97 79 59 45 44 39 39 44 41 40 32 26 32 58 42 344 349 16 32 107 145 142 98 94 94 84 72 57 60
103 121 144 116 97 88 78 70 109 122 126 112 119 101 96 81 63 34 43 50 44 44 49 43 42 39 39 42 55 48 54 50 33 20 50 137 132 93 95 84 75 68 41